Regional Weather Roundup
Issued by NWS

Current Version | Previous Version | Text Only | Print | Product List | Glossary On
Versions: 1 2 3 4 5 6 7 8 9 10 11 12 13 14 15 16 17 18 19 20 21 22 23 24 25 26 27 28 29 30 31 32 33 34 35 36 37 38 39 40 41 42 43 44 45 46 47 48 49 50
000
ASUS44 KFWD 270315
RWRTX
NORTH TEXAS HOURLY WEATHER ROUNDUP
NATIONAL WEATHER SERVICE FORT WORTH TX
1000 PM CDT TUE MAY 26 2015

NOTE: "FAIR" INDICATES FEW OR NO CLOUDS BELOW 12,000 FEET WITH NO
SIGNIFICANT WEATHER AND/OR OBSTRUCTIONS TO VISIBILITY.

TXZ118-119-270400-
DALLAS/FORT WORTH METROPLEX

CITY           SKY/WX    TMP DP  RH WIND       PRES   REMARKS
DFW AIRPORT    TSTM      65  62  90 SE9       30.05R
DALLAS LOVE    TSTM      68  63  84 SW10G21   30.07R
FTW MEACHAM    LGT RAIN  70  61  73 E17G26    30.01R
DAL-EXECUTIVE    N/A    N/A N/A N/A MISG      30.09R THUNDER
FTW-ALLIANCE   CLOUDY    68  62  81 SE20G25   29.97F THUNDER
FTW-NAS-JRB    TSTM      70  63  78 E14G25    29.98R
FTW-SPINKS     TSTM      68  63  85 NE10      30.00R
ARLINGTON      TSTM      67  60  78 SE16G28   30.03F
GRAND PRAIRIE    N/A     63  63 100 E17G29    30.03S VSB 1/2
ADDISON        TSTM      77  72  83 S12G32    30.02
MESQUITE       CLOUDY    75  73  94 N9        30.01R
LANCASTER        N/A     71  65  81 NW37      30.02R THUNDER
$$

TXZ091>094-102>105-117-120-121-131>134-270400-
NORTH CENTRAL TEXAS

CITY           SKY/WX    TMP DP  RH WIND       PRES   REMARKS
SHRMAN/DENISON CLOUDY    74  58  57 SW13      29.93F
GAINESVILLE    CLOUDY    70  56  60 S7        29.96F
BOWIE          CLOUDY    67  61  81 E3        29.96S
BRIDGEPORT     CLOUDY    67  64  87 CALM      29.98F
DECATUR        CLOUDY    70  61  74 SE8       29.97F
DENTON         LGT RAIN  70  64  81 S3        29.98R
MCKINNEY       LGT RAIN  73  68  84 NW8       29.97F
GREENVILLE     CLOUDY    72  66  83 S8        29.97F
ROCKWALL       RAIN     N/A N/A N/A S5        30.00R
TERRELL        TSTM      73  71  93 N5        30.01R FOG
WAXAHACHIE     HVY RAIN  69  63  80 N23G37    30.01R
CLEBURNE       CLOUDY    79  75  89 E5        30.01R
GRANBURY       CLOUDY    70  65  84 NW7G22    30.00R THUNDER
$$

TXZ083>090-098>101-113>116-127>130-139>142-154-155-270400-
WESTERN NORTH TEXAS

CITY           SKY/WX    TMP DP  RH WIND       PRES   REMARKS
WICHITA FALLS  CLOUDY    69  65  86 SE10      29.93R
WF-KICKAPOO    CLOUDY    72  67  84 SE12      29.95R
VERNON         MOCLDY    72  57  58 S15G23    29.93R
ABILENE        MOCLDY    74  57  55 NE10G22   29.97R
ABILENE-DYESS  MOCLDY    72  57  60 N9G21     29.96R
BRECKENRIDGE   TSTM      66  64  94 SE15      30.03R
GRAHAM         CLOUDY    65  62  89 SE5       29.96S
MINERAL WELLS  TSTM      69  64  84 S21       29.96S
STEPHENVILLE     N/A     62  60  93 E26G52    29.97R
COMANCHE       TSTM      73  68  85 N22       29.91S
BROWNWOOD        N/A     79  68  69 S10       29.93R
COLEMAN        CLOUDY    75  58  54 CALM      29.90R
BRADY          LGT RAIN  79  66  65 S12       29.93F
$$

TXZ143>147-156>162-174-175-270400-
CENTRAL TEXAS

CITY           SKY/WX    TMP DP  RH WIND       PRES   REMARKS
WACO           CLOUDY    79  72  79 SE17      29.94R
WACO-TSTC      CLEAR     79  73  83 S9        29.95
WACO-MCGREGOR  CLOUDY    79  70  73 S14       29.96R
HILLSBORO      CLOUDY   N/A N/A N/A SE9       29.96S
CORSICANA      CLOUDY    79  72  79 SE9       29.98F
MEXIA          CLOUDY    76  72  87 SE13      29.97S
HEARNE         MOCLDY    78  73  86 SE10G18   29.97F
CAMERON        CLOUDY    78  74  86 SE10G16   29.96R
TEMPLE         CLOUDY    79  70  73 SE14G22   29.95R
KILLEEN        CLOUDY    78  74  88 SE15      29.95R
KILLEEN-SKYLRK CLOUDY    79  72  78 SE12G17   29.95S
FORT HOOD      CLOUDY    78  74  86 SE16      29.95R HAZE
GATESVILLE     CLOUDY    79  73  83 SE9       29.97S
HAMILTON       CLOUDY    78  71  80 SE15G25   29.95S
LAMPASAS       CLOUDY    78  74  86 SE7       29.95S
$$

TXZ095>097-106>112-122>126-135>138-148>153-164>167-270400-
EAST TEXAS

CITY           SKY/WX    TMP DP  RH WIND       PRES   REMARKS
PARIS          CLOUDY    73  66  78 SE15      29.97F
SULPHUR SPRNGS CLOUDY    77  72  83 SE9       29.99F THUNDER
MOUNT PLEASANT CLOUDY    75  72  90 SE8       30.03R
GILMER         TSTM      76  73  90 E13G18    30.02R
MINEOLA        TSTM      75  70  83 SE8G16    30.00S
TYLER          CLOUDY    78  72  81 SE6       30.01R
LONGVIEW       TSTM      73  70  90 SE8       30.03R
MARSHALL       CLOUDY    76  73  90 SE3       30.06S
ATHENS         CLOUDY    77  72  83 SE5       29.98F
PALESTINE      CLOUDY    77  73  87 SE8       30.01F
JACKSONVILLE   CLOUDY    76  72  87 S9        30.04R
NACOGDOCHES    CLOUDY    75  72  88 SE6       30.04R
LUFKIN         MOCLDY    77  71  82 SE5       30.03R
$$

SUPPLEMENTAL OBSERVATIONS (CENTRAL)

CITY           SKY/WX    TMP DP  RH WIND       PRES   REMARKS
LAKE TEXOMA      N/A     79  54  41 W26         N/A
CADDO GRASSLND   N/A     75  70  83 S8          N/A
PAT MAYSE LAKE   N/A     73  70  88 E12         N/A
GREENVILLE       N/A     73  64  73 SE3G15      N/A
CEDAR HILL       N/A     63  59  88 E5G33       N/A
ATHENS           N/A     79  72  78 S10         N/A
MCGREGOR         N/A     79  73  83 SE14        N/A
TEMPLE           N/A     79  73  83 SE13        N/A
$$

SUPPLEMENTAL OBSERVATIONS (WEST)

CITY           SKY/WX    TMP DP  RH WIND       PRES   REMARKS
MILLERS CREEK    N/A     66  59  77 SE21G28     N/A
POSSUM KINGDOM   N/A     66  59  77 S10G20      N/A
LBJ GRASSLAND    N/A     70  57  64 SE7         N/A
GRANBURY         N/A     70  66  88 NW7G33      N/A
HAMBY            N/A     66  63  88 E18G28      N/A
IVIE RESERVOIR   N/A     79  59  50 SW13        N/A
COLORADO BEND    N/A     79  72  78 SW15G22     N/A
$$

SUPPLEMENTAL OBSERVATIONS (EAST)

CITY           SKY/WX    TMP DP  RH WIND       PRES   REMARKS
CLARKSVILLE      N/A     73  72  94 SE10        N/A
TEXARKANA        N/A     72  66  83 SE1         N/A
LINDEN           N/A     73  70  88 S3          N/A
CADDO LAKE       N/A     70  66  88 SW1         N/A
GILMER           N/A     75  68  78 SE12        N/A
HENDERSON        N/A     73  68  83 SE7         N/A
LUFKIN           N/A     75  70  83 MISG        N/A
N SABINE NF      N/A     70  68  94 MISG        N/A
S SABINE NF      N/A     70  68  94 CALM        N/A
$$

SUPPLEMENTAL OBSERVATIONS ARE A COLLECTION OF AUTOMATED INSTRUMENTS
THAT ARE MAINTAINED BY A VARIETY OF FEDERAL AND STATE AGENCIES.
CERTAIN ELEMENTS...SUCH AS HUMIDITY VALUES AND SUSTAINED WIND
SPEEDS...MAY BE APPROXIMATED.



USA.gov is the U.S. government's official web portal to all federal, state and local government web resources and services.